Regional Weather Roundup
Issued by NWS

Home | Current Version | Previous Version | Text Only | Print | Product List | Glossary On
Versions: 1 2 3 4 5 6 7 8 9 10 11 12 13 14 15 16 17 18 19 20 21 22 23 24 25 26 27 28 29 30 31 32 33 34 35 36 37 38 39 40 41 42 43 44 45 46 47 48 49 50
000
ASUS43 KDTX 270401
RWRMI
MICHIGAN HOURLY REGIONAL WEATHER ROUNDUP
NATIONAL WEATHER SERVICE DETROIT/PONTIAC MI
1200 AM EDT MON APR 27 2015

NOTE: "FAIR" INDICATES FEW OR NO CLOUDS BELOW 12,000 FEET WITH NO
SIGNIFICANT WEATHER AND/OR OBSTRUCTION TO VISIBILITY.

MIZ047>049-052>055-059>063-066>070-074>076-081>083-270500-
SOUTHEAST LOWER MICHIGAN

CITY           SKY/WX    TMP DP  RH WIND       PRES   REMARKS
ADRIAN         CLOUDY    47  35  63 E6        29.93R
ALMA           CLEAR     35  32  87 CALM      29.97S
ANN ARBOR      CLEAR     43  32  65 NE3       29.94R
BAD AXE        CLOUDY    44  33  65 N9        29.93S
CARO           CLOUDY    38  33  82 CALM      29.93S
DETROIT CITY   CLEAR     42  30  62 CALM      29.94S
DETROIT        CLEAR     44  31  60 N3        29.95R
FLINT          CLEAR     44  30  57 CALM      29.95S
GROSSE ILE     CLEAR     43  34  70 N5        29.93R
HILLSDALE      CLOUDY    49  31  48 N5        29.92S
HOWELL         CLEAR     43  31  61 CALM      29.95R

CITY           SKY/WX    TMP DP  RH WIND       PRES   REMARKS
JACKSON        PTCLDY    45  29  53 NE8       29.94R
LAMBERTVILLE   MOCLDY    46  36  66 E5        29.94R
LANSING        CLEAR     43  31  62 N5        29.97R
LAPEER         FAIR      35  31  86 CALM      29.93F
MASON          PTCLDY    42  31  63 NE5       29.95R
MONROE         PTCLDY    43  30  61 CALM      29.93R
PONTIAC        CLEAR     42  31  64 NW3       29.93S
PORT HOPE        N/A     43  36  76 NW13G21   29.91S
PORT HURON     CLOUDY    39  34  81 CALM      29.92S
TRI CITIES     MOCLDY    41  35  79 NW5       29.96S
MIDLAND        CLOUDY    38  34  83 CALM      29.96S
TROY           CLEAR     44  31  62 NW3       29.95S
SAGINAW HB     PTCLDY    39  32  75 W3        29.95S
$$
MIZ043>046-050>051-056>058-064>065-071>073-077>080-270500-
SOUTHWEST LOWER MICHIGAN

CITY           SKY/WX    TMP DP  RH WIND       PRES   REMARKS
BATTLE CREEK   CLEAR     47  28  47 N10       29.96R
BENTON HARBOR  CLEAR     40  33  76 VRB5      29.99R
BIG RAPIDS     CLEAR     41  31  67 N10       29.99S
COLDWATER      PTCLDY    47  29  49 N9        29.93R
FREMONT        FAIR      43  28  55 N7        30.00S
HOLLAND        CLEAR     47  30  51 N7        30.00R
GRAND RAPIDS   CLEAR     45  29  53 N10       29.98R
IONIA          FAIR      44  31  61 N8        29.97R
KALAMAZOO      CLEAR     42  29  59 N9        29.96R
LUDINGTON      MOCLDY    42  31  65 N7        30.04S
MARSHALL       PTCLDY    46  29  49 NW7       29.94R
MOUNT PLEASANT PTCLDY    43  31  64 NW3       29.97S
MUSKEGON       CLEAR     45  30  55 N9        30.01R
SOUTH HAVEN    CLEAR     42  34  74 N3        29.99R
$$
MIZ016>042-270500-
NORTHERN LOWER MICHIGAN

CITY           SKY/WX    TMP DP  RH WIND       PRES   REMARKS
BEAVER ISLAND  CLOUDY    41  32  71 N8        30.05S
BELLAIRE       CLOUDY    44  31  60 N5        30.02S
CADILLAC       CLOUDY    39  30  70 N5        29.98F
CHARLEVOIX     CLOUDY    39  33  78 N8        30.06S WCI  34
FRANKFORT      CLOUDY    44  29  56 N7        30.04F
GAYLORD        CLOUDY    41  31  67 VRB5      29.98S
GRAYLING       CLOUDY    41  30  64 CALM      29.99S
HARBOR SPRINGS CLOUDY    42  32  69 N9        30.01S
HOUGHTON LAKE  CLOUDY    41  30  65 NW8       29.97F
MANISTEE       CLOUDY    43  28  56 N5        30.04F
OSCODA         CLOUDY    46  33  60 N14G20    29.94R
PELLSTON       CLOUDY    43  33  68 NW10      30.02S
ROGERS CITY    CLOUDY    40  34  79 NW13      30.00R WCI  33
TRAVERSE CITY  CLOUDY    43  31  62 NW9       30.02S
$$
MIZ007>008-015-270500-
EASTERN UPPER MICHIGAN

CITY           SKY/WX    TMP DP  RH WIND       PRES   REMARKS
KINROSS        CLOUDY    39  36  87 NW9       30.01S WCI  33
MACKINAC ISLAN CLOUDY    41  34  76 N7        30.01S
NEWBERRY       CLOUDY    38  33  82 N10G16    30.04F WCI  31
S. S. MARIE    MOCLDY    41  33  73 N8        30.02S
$$
MIZ004>006-011>014-085-270500-
CENTRAL UPPER MICHIGAN

CITY           SKY/WX    TMP DP  RH WIND       PRES   REMARKS
MANISTIQUE     MOCLDY    39  32  75 N10       30.06R WCI  32
ESCANABA       PTCLDY    41  27  56 CALM      30.07F
MENOMINEE      PTCLDY    45  27  49 N6        30.08S
SAWYER-GWINN   CLEAR     43  28  56 N10       30.08S
$$
MIZ001>003-009>011-084-270500-
WESTERN UPPER MICHIGAN

CITY           SKY/WX    TMP DP  RH WIND       PRES   REMARKS
IRON MOUNTAIN  CLEAR     41  27  57 NW7       30.09R
HOUGHTON       CLEAR     36  28  73 NW13      30.13S WCI  27
COPPER HARBOR    N/A     41  28  60 N12       30.13R
IRONWOOD       CLEAR     34  30  86 CALM      30.14S
$$

ABBREVIATIONS USED IN REMARKS
   TC - TEMPERATURE IN CELSIUS
  WCI - WIND CHILL INDEX
   HX - HEAT INDEX
  VSB - VISIBILITY



USA.gov is the U.S. government's official web portal to all federal, state and local government web resources and services.